Location: Oriwa
(40.7500°S, 175.3333°E)
Time: 14:08:48
(UTC+00:00)

YAOGAN 11 - Pass Details

Date: 03 February 2023
Orbit: 610 x 664 km, 98.4° (Epoch: 31 March)

Event Time Altitude Azimuth Distance (km) Brightness Sun altitude
Rises 16:12:15 0° 167° (SSE) 2,967 8.4 -13.4°
Reaches altitude 10° 16:14:28 10° 167° (SSE) 2,059 7.5 -13.1°
Maximum altitude 16:18:58 89° 239° (WSW) 660 4.2 -12.4°
Drops below altitude 10° 16:23:29 10° 345° (NNW) 2,064 6.3 -11.7°
Enters shadow 16:23:50 - 345° (NNW) 2,205 6.4 -11.6°
